TimeCST,TemperatureF,Dew PointF,Humidity,Sea Level PressureIn,VisibilityMPH,Wind Direction,Wind SpeedMPH,Gust SpeedMPH,PrecipitationIn,Events,Conditions,WindDirDegrees,DateUTC
12:13 AM,1.4,-4.0,78,30.06,10.0,Calm,Calm,-,N/A,,Clear,0,2013-01-05 06:13:00
12:33 AM,1.4,-5.8,72,30.05,10.0,Calm,Calm,-,N/A,,Clear,0,2013-01-05 06:33:00
12:53 AM,-0.4,-5.8,78,30.06,10.0,Calm,Calm,-,N/A,,Clear,0,2013-01-05 06:53:00
1:13 AM,-0.4,-5.8,78,30.06,10.0,Calm,Calm,-,N/A,,Clear,0,2013-01-05 07:13:00
1:33 AM,-0.4,-5.8,78,30.06,10.0,Calm,Calm,-,N/A,,Scattered Clouds,0,2013-01-05 07:33:00
1:53 AM,-0.4,-5.8,78,30.06,10.0,Calm,Calm,-,N/A,,Scattered Clouds,0,2013-01-05 07:53:00
2:13 AM,1.4,-4.0,78,30.06,10.0,Calm,Calm,-,N/A,,Scattered Clouds,0,2013-01-05 08:13:00
2:33 AM,3.2,-0.4,85,30.05,10.0,Calm,Calm,-,N/A,,Mostly Cloudy,0,2013-01-05 08:33:00
2:53 AM,3.2,-0.4,85,30.05,10.0,Calm,Calm,-,N/A,,Mostly Cloudy,0,2013-01-05 08:53:00
3:13 AM,5.0,-0.4,78,30.05,10.0,Calm,Calm,-,N/A,,Mostly Cloudy,0,2013-01-05 09:13:00
3:33 AM,5.0,-0.4,78,30.04,10.0,Calm,Calm,-,N/A,,Mostly Cloudy,0,2013-01-05 09:33:00
3:53 AM,5.0,1.4,85,30.04,10.0,Calm,Calm,-,N/A,,Mostly Cloudy,0,2013-01-05 09:53:00
4:13 AM,6.8,1.4,79,30.03,10.0,Calm,Calm,-,N/A,,Mostly Cloudy,0,2013-01-05 10:13:00
4:33 AM,8.6,3.2,79,30.02,10.0,Calm,Calm,-,N/A,,Mostly Cloudy,0,2013-01-05 10:33:00
5:13 AM,8.6,3.2,79,30.02,10.0,Calm,Calm,-,N/A,,Scattered Clouds,0,2013-01-05 11:13:00
5:33 AM,10.4,5.0,79,30.01,10.0,Calm,Calm,-,N/A,,Scattered Clouds,0,2013-01-05 11:33:00
5:53 AM,10.4,6.8,85,30.01,10.0,Calm,Calm,-,N/A,,Scattered Clouds,0,2013-01-05 11:53:00
6:33 AM,12.2,8.6,85,29.99,10.0,Calm,Calm,-,N/A,,Scattered Clouds,0,2013-01-05 12:33:00
6:53 AM,14.0,10.4,86,29.98,10.0,Calm,Calm,-,N/A,,Scattered Clouds,0,2013-01-05 12:53:00
7:13 AM,15.8,12.2,86,29.97,10.0,Calm,Calm,-,N/A,,Scattered Clouds,0,2013-01-05 13:13:00
7:33 AM,15.8,10.4,79,29.96,10.0,Calm,Calm,-,N/A,,Scattered Clouds,0,2013-01-05 13:33:00
7:53 AM,15.8,12.2,86,29.96,10.0,Calm,Calm,-,N/A,,Scattered Clouds,0,2013-01-05 13:53:00
8:13 AM,19.4,17.6,93,29.95,10.0,Calm,Calm,-,N/A,,Scattered Clouds,0,2013-01-05 14:13:00
8:33 AM,19.4,17.6,93,29.96,10.0,Calm,Calm,-,N/A,,Scattered Clouds,0,2013-01-05 14:33:00
8:53 AM,21.2,17.6,86,29.96,10.0,Calm,Calm,-,N/A,,Scattered Clouds,0,2013-01-05 14:53:00
9:13 AM,23.0,19.4,86,29.95,10.0,SE,3.5,-,N/A,,Scattered Clouds,130,2013-01-05 15:13:00
9:54 AM,26.6,19.4,74,29.95,10.0,SE,5.8,-,N/A,,Scattered Clouds,130,2013-01-05 15:54:00
10:13 AM,26.6,19.4,74,29.95,10.0,SE,4.6,-,N/A,,Scattered Clouds,130,2013-01-05 16:13:00
10:53 AM,28.4,19.4,69,29.92,10.0,East,6.9,-,N/A,,Clear,100,2013-01-05 16:53:00
11:33 AM,28.4,19.4,69,29.90,10.0,East,4.6,-,N/A,,Clear,100,2013-01-05 17:33:00
11:53 AM,28.4,19.4,69,29.89,10.0,SE,5.8,-,N/A,,Clear,130,2013-01-05 17:53:00
12:13 PM,28.4,19.4,69,29.88,10.0,SE,3.5,-,N/A,,Clear,130,2013-01-05 18:13:00
12:33 PM,28.4,19.4,69,29.86,10.0,Calm,Calm,-,N/A,,Clear,0,2013-01-05 18:33:00
12:53 PM,28.4,19.4,69,29.84,10.0,East,4.6,-,N/A,,Clear,90,2013-01-05 18:53:00
1:13 PM,28.4,19.4,69,29.84,10.0,ENE,4.6,-,N/A,,Clear,70,2013-01-05 19:13:00
1:33 PM,28.4,19.4,69,29.83,10.0,East,6.9,-,N/A,,Clear,90,2013-01-05 19:33:00
1:53 PM,28.4,19.4,69,29.83,10.0,NE,6.9,-,N/A,,Clear,40,2013-01-05 19:53:00
2:13 PM,28.4,19.4,69,29.82,10.0,ENE,5.8,-,N/A,,Clear,60,2013-01-05 20:13:00
2:33 PM,28.4,19.4,69,29.82,10.0,East,4.6,-,N/A,,Clear,80,2013-01-05 20:33:00
2:53 PM,28.4,19.4,69,29.82,10.0,ENE,3.5,-,N/A,,Scattered Clouds,60,2013-01-05 20:53:00
3:13 PM,28.4,19.4,69,29.82,10.0,NE,5.8,-,N/A,,Scattered Clouds,40,2013-01-05 21:13:00
3:33 PM,28.4,19.4,69,29.82,10.0,NNE,4.6,-,N/A,,Scattered Clouds,30,2013-01-05 21:33:00
3:53 PM,26.6,19.4,74,29.83,10.0,NNE,3.5,-,N/A,,Mostly Cloudy,30,2013-01-05 21:53:00
4:13 PM,26.6,17.6,69,29.82,10.0,Calm,Calm,-,N/A,,Mostly Cloudy,0,2013-01-05 22:13:00
4:33 PM,26.6,17.6,69,29.83,10.0,NNE,4.6,-,N/A,,Mostly Cloudy,20,2013-01-05 22:33:00
4:53 PM,26.6,17.6,69,29.83,10.0,NNE,3.5,-,N/A,,Mostly Cloudy,20,2013-01-05 22:53:00
5:13 PM,26.6,17.6,69,29.82,10.0,Calm,Calm,-,N/A,,Mostly Cloudy,0,2013-01-05 23:13:00
5:33 PM,26.6,17.6,69,29.83,10.0,Calm,Calm,-,N/A,,Mostly Cloudy,0,2013-01-05 23:33:00
5:53 PM,26.6,17.6,69,29.84,10.0,NNE,4.6,-,N/A,,Mostly Cloudy,20,2013-01-05 23:53:00
6:13 PM,26.6,17.6,69,29.85,10.0,Calm,Calm,-,N/A,,Mostly Cloudy,0,2013-01-06 00:13:00
6:33 PM,26.6,17.6,69,29.86,10.0,North,3.5,-,N/A,,Mostly Cloudy,360,2013-01-06 00:33:00
6:53 PM,26.6,17.6,69,29.86,10.0,Calm,Calm,-,N/A,,Mostly Cloudy,0,2013-01-06 00:53:00
7:13 PM,26.6,15.8,64,29.85,10.0,Calm,Calm,-,N/A,,Scattered Clouds,0,2013-01-06 01:13:00
7:53 PM,26.6,15.8,64,29.87,10.0,NNW,4.6,-,N/A,,Clear,340,2013-01-06 01:53:00
8:13 PM,24.8,17.6,74,29.87,10.0,NNW,4.6,-,N/A,,Clear,340,2013-01-06 02:13:00
8:33 PM,24.8,15.8,69,29.87,10.0,NNW,4.6,-,N/A,,Clear,340,2013-01-06 02:33:00
8:53 PM,24.8,15.8,69,29.87,10.0,North,3.5,-,N/A,,Scattered Clouds,350,2013-01-06 02:53:00
9:13 PM,24.8,15.8,69,29.87,10.0,NNW,4.6,-,N/A,,Clear,340,2013-01-06 03:13:00
9:33 PM,23.0,15.8,74,29.88,10.0,NNW,4.6,-,N/A,,Clear,340,2013-01-06 03:33:00
9:53 PM,23.0,15.8,74,29.89,10.0,NNW,5.8,-,N/A,,Clear,330,2013-01-06 03:53:00
10:13 PM,23.0,15.8,74,29.89,10.0,NNW,4.6,-,N/A,,Scattered Clouds,340,2013-01-06 04:13:00
10:33 PM,23.0,15.8,74,29.89,10.0,Calm,Calm,-,N/A,,Mostly Cloudy,0,2013-01-06 04:33:00
10:53 PM,21.2,15.8,80,29.89,10.0,NNW,5.8,-,N/A,,Scattered Clouds,330,2013-01-06 04:53:00
11:13 PM,21.2,15.8,80,29.89,10.0,NNW,4.6,-,N/A,,Scattered Clouds,330,2013-01-06 05:13:00
11:33 PM,21.2,15.8,80,29.89,10.0,NNW,4.6,-,N/A,,Scattered Clouds,340,2013-01-06 05:33:00
11:53 PM,21.2,15.8,80,29.89,10.0,North,5.8,-,N/A,,Scattered Clouds,350,2013-01-06 05:53:00